• In Russia
  • List of Countries
  • For 7 days
  • Water Temperature
  • Satellite Maps
  • Weather Map
  • Weather Widgets
  • user-avatar
    Login

    Hourly Weather Nakhchivan

    Today, 24 May, Wednesday

    Time Temperature Precipitation Wind Pressure Humidity
    00:00 +18°C° 0.1 mm 1 mps 684 mmHg 60%
    01:00 +18°C° 0.1 mm 1 mps 684 mmHg 60%
    02:00 +16°C° 0.1 mm 1 mps 684 mmHg 60%
    03:00 +16°C° 0.1 mm 1 mps 684 mmHg 60%
    04:00 +18°C° 0.2 mm 1 mps 684 mmHg 60%
    05:00 +18°C° 0.2 mm 1 mps 684 mmHg 60%
    06:00 +18°C° 0.2 mm 1 mps 684 mmHg 59%
    07:00 +20°C° 0.1 mm 1 mps 684 mmHg 52%
    08:00 +21°C° 0.1 mm 1 mps 684 mmHg 46%
    09:00 +23°C° 0.1 mm 2 mps 684 mmHg 39%
    10:00 +24°C° 0.1 mm 2 mps 684 mmHg 35%
    11:00 +26°C° 0.1 mm 2 mps 684 mmHg 31%
    12:00 +27°C° 0.1 mm 2 mps 684 mmHg 27%
    13:00 +27°C° 0.1 mm 2 mps 684 mmHg 26%
    14:00 +28°C° 0.1 mm 2 mps 684 mmHg 25%
    15:00 +28°C° 0.1 mm 2 mps 684 mmHg 24%
    16:00 +28°C° 0.1 mm 2 mps 684 mmHg 27%
    17:00 +27°C° 0.1 mm 3 mps 684 mmHg 30%
    18:00 +26°C° 0.1 mm 3 mps 684 mmHg 32%
    19:00 +24°C° 0.2 mm 3 mps 684 mmHg 40%
    20:00 +21°C° 0.2 mm 2 mps 685 mmHg 48%
    21:00 +19°C° 0.2 mm 2 mps 685 mmHg 56%
    22:00 +19°C° 0.1 mm 2 mps 685 mmHg 59%
    23:00 +18°C° 0.1 mm 2 mps 685 mmHg 62%

    Tomorrow, 25 May, Thursday

    Time Temperature Precipitation Wind Pressure Humidity
    00:00 +18°C° 0.1 mm 1 mps 686 mmHg 65%
    01:00 +18°C° 0.1 mm 1 mps 685 mmHg 66%
    02:00 +16°C° 0.1 mm 1 mps 685 mmHg 68%
    03:00 +16°C° 0.1 mm 1 mps 685 mmHg 69%
    04:00 +16°C° 0 mm 1 mps 686 mmHg 66%
    05:00 +18°C° 0 mm 1 mps 686 mmHg 64%
    06:00 +18°C° 0 mm 1 mps 686 mmHg 61%
    07:00 +20°C° 0 mm 1 mps 687 mmHg 54%
    08:00 +21°C° 0 mm 1 mps 687 mmHg 47%
    09:00 +23°C° 0 mm 1 mps 687 mmHg 41%
    10:00 +24°C° 0 mm 1 mps 687 mmHg 37%
    11:00 +25°C° 0 mm 1 mps 687 mmHg 34%
    12:00 +26°C° 0 mm 1 mps 687 mmHg 30%
    13:00 +27°C° 0 mm 1 mps 687 mmHg 29%
    14:00 +27°C° 0 mm 2 mps 687 mmHg 27%
    15:00 +28°C° 0 mm 2 mps 686 mmHg 26%
    16:00 +27°C° 0 mm 2 mps 686 mmHg 27%
    17:00 +26°C° 0 mm 2 mps 686 mmHg 29%
    18:00 +26°C° 0 mm 2 mps 686 mmHg 30%
    19:00 +24°C° 0 mm 2 mps 687 mmHg 34%
    20:00 +21°C° 0 mm 2 mps 687 mmHg 39%
    21:00 +20°C° 0 mm 2 mps 687 mmHg 43%
    22:00 +19°C° 0 mm 2 mps 687 mmHg 45%
    23:00 +18°C° 0 mm 2 mps 687 mmHg 46%

    Day after tomorrow, 26 May, Friday

    Time Temperature Precipitation Wind Pressure Humidity
    00:00 +18°C° 0 mm 2 mps 687 mmHg 48%
    01:00 +17°C° 0 mm 2 mps 687 mmHg 48%
    02:00 +18°C° 0 mm 1 mps 687 mmHg 49%
    03:00 +16°C° 0 mm 1 mps 687 mmHg 49%
    04:00 +18°C° 0 mm 1 mps 687 mmHg 48%
    05:00 +19°C° 0 mm 1 mps 687 mmHg 46%
    06:00 +19°C° 0 mm 1 mps 688 mmHg 45%
    07:00 +21°C° 0 mm 1 mps 688 mmHg 40%
    08:00 +23°C° 0 mm 1 mps 688 mmHg 35%
    09:00 +24°C° 0 mm 1 mps 688 mmHg 30%
    10:00 +26°C° 0 mm 1 mps 688 mmHg 27%
    11:00 +27°C° 0 mm 2 mps 687 mmHg 24%
    12:00 +28°C° 0 mm 2 mps 687 mmHg 21%
    13:00 +29°C° 0 mm 2 mps 687 mmHg 20%
    14:00 +29°C° 0 mm 2 mps 687 mmHg 19%
    15:00 +30°C° 0 mm 2 mps 686 mmHg 18%
    16:00 +29°C° 0 mm 2 mps 686 mmHg 20%
    17:00 +29°C° 0 mm 2 mps 686 mmHg 22%
    18:00 +28°C° 0 mm 2 mps 686 mmHg 23%
    19:00 +26°C° 0 mm 2 mps 686 mmHg 27%
    20:00 +24°C° 0 mm 2 mps 686 mmHg 30%
    21:00 +21°C° 0 mm 2 mps 686 mmHg 33%
    22:00 +21°C° 0 mm 2 mps 686 mmHg 34%
    23:00 +20°C° 0 mm 2 mps 686 mmHg 36%

    27 May, Saturday

    Time Temperature Precipitation Wind Pressure Humidity
    00:00 +20°C° 0 mm 2 mps 686 mmHg 37%
    01:00 +19°C° 0.1 mm 2 mps 685 mmHg 39%
    02:00 +20°C° 0.1 mm 1 mps 685 mmHg 41%
    03:00 +19°C° 0.1 mm 1 mps 685 mmHg 43%
    04:00 +20°C° 0.1 mm 1 mps 685 mmHg 43%
    05:00 +20°C° 0.1 mm 1 mps 685 mmHg 43%
    06:00 +21°C° 0.1 mm 1 mps 685 mmHg 43%
    07:00 +23°C° 0.1 mm 1 mps 685 mmHg 38%
    08:00 +24°C° 0.1 mm 1 mps 685 mmHg 32%
    09:00 +26°C° 0.1 mm 1 mps 685 mmHg 27%
    10:00 +28°C° 0.1 mm 2 mps 685 mmHg 25%
    11:00 +29°C° 0.1 mm 3 mps 684 mmHg 23%
    12:00 +31°C° 0.1 mm 3 mps 684 mmHg 21%
    13:00 +33°C° 0.1 mm 4 mps 684 mmHg 20%
    14:00 +33°C° 0.1 mm 4 mps 683 mmHg 19%
    15:00 +34°C° 0.1 mm 5 mps 683 mmHg 18%
    16:00 +32°C° 0.2 mm 4 mps 682 mmHg 25%
    17:00 +29°C° 0.2 mm 4 mps 682 mmHg 31%
    18:00 +27°C° 0.2 mm 4 mps 682 mmHg 38%
    19:00 +25°C° 0.2 mm 3 mps 682 mmHg 43%
    20:00 +24°C° 0.2 mm 2 mps 683 mmHg 48%
    21:00 +21°C° 0.2 mm 2 mps 683 mmHg 53%
    22:00 +20°C° 0 mm 2 mps 684 mmHg 53%
    23:00 +21°C° 0 mm 1 mps 684 mmHg 54%

    28 May, Sunday

    Time Temperature Precipitation Wind Pressure Humidity
    00:00 +20°C° 0 mm 1 mps 684 mmHg 54%
    01:00 +20°C° 0 mm 1 mps 684 mmHg 54%
    02:00 +19°C° 0 mm 1 mps 684 mmHg 54%
    03:00 +18°C° 0 mm 1 mps 684 mmHg 55%
    04:00 +19°C° 0 mm 1 mps 685 mmHg 53%
    05:00 +19°C° 0 mm 2 mps 685 mmHg 51%
    06:00 +19°C° 0 mm 2 mps 686 mmHg 49%
    07:00 +21°C° 0 mm 2 mps 686 mmHg 41%
    08:00 +24°C° 0 mm 2 mps 686 mmHg 34%
    09:00 +26°C° 0 mm 2 mps 686 mmHg 26%
    10:00 +27°C° 0 mm 3 mps 686 mmHg 23%
    11:00 +29°C° 0 mm 3 mps 686 mmHg 20%
    12:00 +30°C° 0 mm 4 mps 686 mmHg 18%
    13:00 +30°C° 0 mm 4 mps 686 mmHg 17%
    14:00 +32°C° 0 mm 4 mps 685 mmHg 17%
    15:00 +32°C° 0 mm 5 mps 685 mmHg 16%
    16:00 +30°C° 0 mm 4 mps 685 mmHg 18%
    17:00 +29°C° 0 mm 4 mps 685 mmHg 20%
    18:00 +28°C° 0 mm 3 mps 685 mmHg 22%
    19:00 +26°C° 0 mm 3 mps 685 mmHg 27%
    20:00 +24°C° 0 mm 2 mps 685 mmHg 31%
    21:00 +21°C° 0 mm 2 mps 685 mmHg 35%
    22:00 +21°C° 0 mm 2 mps 685 mmHg 36%
    23:00 +20°C° 0 mm 2 mps 685 mmHg 38%

    29 May, Monday

    Time Temperature Precipitation Wind Pressure Humidity
    00:00 +19°C° 0 mm 2 mps 686 mmHg 39%
    01:00 +19°C° 0 mm 2 mps 686 mmHg 41%
    02:00 +19°C° 0 mm 1 mps 686 mmHg 43%
    03:00 +19°C° 0 mm 1 mps 686 mmHg 44%
    04:00 +19°C° 0 mm 1 mps 686 mmHg 44%
    05:00 +20°C° 0 mm 1 mps 686 mmHg 43%
    06:00 +20°C° 0 mm 1 mps 687 mmHg 43%
    07:00 +22°C° 0 mm 1 mps 687 mmHg 37%
    08:00 +24°C° 0 mm 1 mps 687 mmHg 31%
    09:00 +26°C° 0 mm 1 mps 687 mmHg 25%
    10:00 +27°C° 0 mm 2 mps 687 mmHg 23%
    11:00 +28°C° 0 mm 2 mps 687 mmHg 20%
    12:00 +30°C° 0 mm 2 mps 687 mmHg 18%
    13:00 +30°C° 0 mm 2 mps 687 mmHg 17%
    14:00 +31°C° 0 mm 3 mps 686 mmHg 16%
    15:00 +31°C° 0 mm 3 mps 686 mmHg 15%
    16:00 +31°C° 0 mm 3 mps 686 mmHg 17%
    17:00 +30°C° 0 mm 3 mps 686 mmHg 18%
    18:00 +29°C° 0 mm 3 mps 686 mmHg 20%
    19:00 +27°C° 0 mm 2 mps 686 mmHg 24%
    20:00 +25°C° 0 mm 2 mps 687 mmHg 28%
    21:00 +23°C° 0 mm 2 mps 687 mmHg 32%
    22:00 +21°C° 0 mm 2 mps 687 mmHg 35%
    23:00 +20°C° 0 mm 2 mps 687 mmHg 38%
    Show more